Precipitable_Water
0.60 0.60 0.60 0.61 0.61 0.60 0.60 0.59 0.59 0.61 0.62 0.61 0.62 0.61 0.62 0.61 0.61 0.60 0.58 0.58 0.57 0.56 0.53 0.50 0.49 0.48 0.46 0.45 0.43 0.41 0.40 0.31 0.25 0.22 0.21 0.23 0.29 0.33 0.39 0.39 0.35 0.30 0.31 0.26 0.23 0.29 0.25 0.21 0.20 0.29 0.30 0.31 0.31 0.28 0.29 0.27 0.26 0.23 0.17 0.15 0.13 0.15 0.17 0.19 0.19 0.19 0.24 0.21 0.23 0.24 0.23 0.21 0.18 0.19 0.53 0.65 0.70 0.77 0.79 0.86 0.97 1.01 1.07 1.16 1.26 1.31 1.29 1.34
0.61 0.60 0.60 0.59 0.59 0.59 0.61 0.61 0.60 0.60 0.60 0.61 0.62 0.63 0.62 0.62 0.61 0.60 0.60 0.59 0.57 0.57 0.54 0.52 0.50 0.49 0.46 0.44 0.43 0.42 0.36 0.29 0.24 0.24 0.21 0.24 0.28 0.32 0.37 0.37 0.36 0.30 0.28 0.22 0.22 0.26 0.27 0.22 0.21 0.27 0.31 0.26 0.31 0.25 0.27 0.22 0.24 0.19 0.17 0.15 0.12 0.17 0.19 0.23 0.24 0.23 0.22 0.24 0.26 0.25 0.25 0.22 0.24 0.21 0.49 0.53 0.68 0.71 0.71 0.84 0.96 0.99 1.16 1.25 1.30 1.32 1.29 1.29
0.61 0.61 0.60 0.60 0.60 0.59 0.59 0.60 0.61 0.61 0.60 0.61 0.61 0.61 0.63 0.62 0.61 0.60 0.60 0.59 0.58 0.58 0.56 0.54 0.52 0.49 0.46 0.45 0.42 0.40 0.35 0.24 0.26 0.19 0.20 0.27 0.25 0.30 0.34 0.35 0.34 0.32 0.24 0.19 0.25 0.29 0.30 0.29 0.27 0.27 0.30 0.29 0.29 0.23 0.22 0.21 0.21 0.19 0.17 0.13 0.14 0.20 0.23 0.25 0.26 0.25 0.26 0.26 0.27 0.28 0.31 0.39 0.31 0.26 0.49 0.49 0.60 0.73 0.65 0.75 0.89 0.92 1.04 1.14 1.24 1.25 1.24 1.22
0.61 0.60 0.60 0.60 0.59 0.59 0.59 0.59 0.59 0.60 0.60 0.60 0.59 0.60 0.60 0.61 0.62 0.61 0.60 0.60 0.59 0.58 0.57 0.55 0.53 0.50 0.47 0.44 0.43 0.40 0.32 0.24 0.14 0.15 0.22 0.25 0.26 0.25 0.31 0.32 0.32 0.30 0.24 0.21 0.24 0.29 0.32 0.35 0.33 0.31 0.30 0.26 0.25 0.26 0.22 0.21 0.18 0.20 0.17 0.13 0.17 0.22 0.21 0.24 0.28 0.27 0.27 0.27 0.27 0.29 0.40 0.35 0.35 0.40 0.42 0.56 0.57 0.67 0.68 0.77 0.85 0.90 1.00 1.09 1.14 1.18 1.13 1.15
0.61 0.61 0.60 0.61 0.60 0.58 0.59 0.59 0.58 0.59 0.59 0.59 0.58 0.58 0.58 0.58 0.60 0.62 0.61 0.60 0.60 0.59 0.57 0.55 0.53 0.50 0.48 0.45 0.40 0.38 0.29 0.12 0.15 0.25 0.30 0.32 0.31 0.29 0.29 0.31 0.31 0.27 0.21 0.19 0.20 0.23 0.24 0.26 0.28 0.30 0.28 0.24 0.24 0.23 0.20 0.22 0.22 0.22 0.16 0.16 0.22 0.24 0.22 0.24 0.27 0.28 0.28 0.27 0.27 0.34 0.39 0.43 0.47 0.48 0.38 0.55 0.58 0.65 0.75 0.87 0.98 1.02 1.04 1.04 1.03 1.08 1.08 1.07
0.60 0.61 0.61 0.61 0.61 0.60 0.58 0.58 0.58 0.58 0.58 0.58 0.58 0.57 0.57 0.57 0.57 0.59 0.61 0.61 0.60 0.60 0.59 0.57 0.55 0.51 0.49 0.45 0.38 0.34 0.23 0.08 0.35 0.30 0.33 0.37 0.35 0.36 0.33 0.32 0.30 0.24 0.20 0.17 0.17 0.19 0.21 0.24 0.26 0.25 0.24 0.24 0.23 0.20 0.21 0.21 0.24 0.18 0.18 0.19 0.22 0.24 0.23 0.24 0.27 0.27 0.27 0.27 0.28 0.31 0.31 0.39 0.44 0.41 0.39 0.46 0.57 0.69 0.99 0.99 1.06 1.11 1.09 1.09 1.02 1.02 1.05 1.03
0.61 0.61 0.60 0.60 0.60 0.60 0.59 0.58 0.58 0.57 0.57 0.57 0.57 0.57 0.56 0.57 0.58 0.58 0.60 0.61 0.60 0.60 0.59 0.57 0.54 0.52 0.48 0.44 0.37 0.30 0.20 0.18 0.35 0.40 0.37 0.35 0.34 0.37 0.35 0.33 0.31 0.24 0.19 0.16 0.16 0.17 0.20 0.23 0.25 0.24 0.24 0.23 0.24 0.22 0.23 0.22 0.24 0.21 0.17 0.21 0.23 0.24 0.23 0.25 0.28 0.28 0.28 0.26 0.27 0.26 0.32 0.36 0.43 0.41 0.56 0.63 0.70 0.84 0.96 1.00 1.05 1.14 1.15 1.12 1.04 1.07 1.05 1.04
0.65 0.63 0.62 0.60 0.59 0.59 0.59 0.58 0.58 0.57 0.56 0.56 0.55 0.56 0.55 0.56 0.58 0.58 0.58 0.61 0.61 0.60 0.58 0.56 0.55 0.52 0.50 0.38 0.29 0.23 0.19 0.14 0.30 0.42 0.39 0.36 0.34 0.33 0.32 0.31 0.27 0.25 0.19 0.15 0.15 0.16 0.18 0.21 0.23 0.27 0.24 0.23 0.23 0.22 0.22 0.21 0.22 0.20 0.18 0.22 0.24 0.25 0.25 0.26 0.28 0.30 0.29 0.27 0.28 0.25 0.23 0.42 0.43 0.47 0.65 0.64 0.76 0.85 0.96 1.01 1.04 1.10 1.12 1.13 1.12 1.09 1.07 1.13
0.68 0.66 0.63 0.62 0.60 0.58 0.58 0.59 0.58 0.57 0.57 0.57 0.55 0.55 0.57 0.56 0.56 0.56 0.57 0.59 0.60 0.60 0.58 0.57 0.54 0.53 0.52 0.42 0.29 0.21 0.18 0.20 0.25 0.32 0.37 0.36 0.37 0.32 0.28 0.23 0.24 0.21 0.18 0.16 0.16 0.17 0.17 0.18 0.23 0.27 0.22 0.23 0.26 0.22 0.22 0.20 0.18 0.19 0.19 0.22 0.25 0.24 0.25 0.26 0.28 0.30 0.28 0.26 0.27 0.22 0.22 0.31 0.43 0.47 0.66 0.71 0.71 0.81 0.91 0.90 0.99 1.07 1.04 1.09 1.14 1.13 1.16 1.14
0.72 0.68 0.66 0.64 0.61 0.58 0.57 0.58 0.58 0.57 0.57 0.57 0.55 0.55 0.55 0.56 0.56 0.56 0.56 0.57 0.59 0.58 0.58 0.56 0.54 0.52 0.45 0.38 0.36 0.20 0.20 0.21 0.26 0.32 0.40 0.40 0.37 0.32 0.27 0.24 0.22 0.20 0.17 0.16 0.16 0.16 0.16 0.18 0.22 0.27 0.27 0.24 0.24 0.21 0.22 0.19 0.19 0.20 0.20 0.21 0.23 0.24 0.24 0.24 0.24 0.27 0.26 0.23 0.23 0.21 0.20 0.23 0.27 0.34 0.47 0.70 0.76 0.83 0.86 0.87 0.92 0.96 1.02 1.08 1.11 1.17 1.18 1.15
0.75 0.73 0.71 0.66 0.62 0.60 0.58 0.57 0.57 0.58 0.56 0.55 0.55 0.54 0.53 0.54 0.55 0.55 0.55 0.55 0.56 0.57 0.56 0.55 0.56 0.51 0.38 0.42 0.28 0.20 0.31 0.33 0.34 0.42 0.44 0.44 0.39 0.33 0.26 0.27 0.25 0.18 0.16 0.16 0.16 0.16 0.17 0.20 0.23 0.25 0.24 0.22 0.23 0.22 0.21 0.19 0.20 0.22 0.22 0.21 0.22 0.23 0.23 0.24 0.26 0.25 0.25 0.22 0.22 0.19 0.19 0.21 0.21 0.34 0.41 0.61 0.66 0.75 0.80 0.86 0.88 0.98 1.03 1.08 1.12 1.15 1.18 1.18
0.80 0.77 0.75 0.72 0.67 0.62 0.59 0.57 0.56 0.56 0.57 0.56 0.56 0.56 0.55 0.53 0.53 0.53 0.53 0.55 0.55 0.55 0.56 0.57 0.55 0.50 0.45 0.39 0.31 0.23 0.37 0.51 0.55 0.54 0.55 0.47 0.43 0.39 0.30 0.30 0.27 0.20 0.16 0.15 0.15 0.18 0.19 0.20 0.22 0.23 0.19 0.25 0.20 0.23 0.21 0.22 0.20 0.20 0.22 0.21 0.20 0.22 0.21 0.22 0.22 0.23 0.24 0.21 0.21 0.18 0.16 0.17 0.19 0.29 0.42 0.59 0.62 0.64 0.76 0.80 0.90 0.94 0.98 1.12 1.15 1.14 1.18 1.18
0.81 0.78 0.76 0.74 0.72 0.65 0.60 0.58 0.56 0.55 0.56 0.56 0.56 0.55 0.54 0.53 0.52 0.52 0.52 0.52 0.53 0.53 0.53 0.54 0.53 0.51 0.42 0.26 0.28 0.31 0.37 0.52 0.53 0.50 0.47 0.48 0.48 0.48 0.44 0.38 0.30 0.26 0.18 0.16 0.16 0.18 0.20 0.22 0.22 0.20 0.23 0.22 0.21 0.18 0.22 0.22 0.21 0.20 0.20 0.21 0.20 0.19 0.18 0.20 0.22 0.22 0.21 0.20 0.21 0.18 0.12 0.15 0.17 0.26 0.41 0.56 0.60 0.60 0.66 0.82 0.85 0.85 0.96 1.07 1.12 1.13 1.18 1.20
0.82 0.81 0.79 0.76 0.73 0.69 0.62 0.58 0.57 0.56 0.55 0.55 0.56 0.55 0.54 0.53 0.51 0.52 0.53 0.51 0.52 0.51 0.51 0.53 0.53 0.47 0.39 0.29 0.32 0.33 0.37 0.47 0.51 0.48 0.44 0.45 0.42 0.36 0.37 0.42 0.37 0.31 0.28 0.19 0.18 0.19 0.20 0.23 0.22 0.20 0.23 0.21 0.19 0.23 0.19 0.20 0.21 0.18 0.20 0.22 0.19 0.17 0.15 0.19 0.19 0.19 0.18 0.22 0.21 0.19 0.14 0.16 0.16 0.24 0.40 0.48 0.51 0.61 0.74 0.84 0.80 0.88 0.99 1.04 1.07 1.09 1.12 1.17
0.82 0.81 0.80 0.78 0.75 0.71 0.65 0.61 0.57 0.56 0.55 0.54 0.55 0.55 0.53 0.50 0.51 0.52 0.52 0.51 0.50 0.51 0.51 0.52 0.49 0.41 0.31 0.27 0.34 0.32 0.34 0.37 0.38 0.40 0.40 0.37 0.32 0.32 0.33 0.38 0.38 0.37 0.35 0.27 0.21 0.21 0.22 0.22 0.21 0.19 0.18 0.22 0.22 0.20 0.18 0.19 0.19 0.19 0.18 0.17 0.18 0.17 0.17 0.17 0.19 0.19 0.17 0.22 0.21 0.18 0.14 0.17 0.17 0.29 0.42 0.46 0.45 0.74 0.81 0.82 0.85 0.91 0.97 1.02 1.03 1.04 1.10 1.15
0.79 0.81 0.81 0.80 0.77 0.73 0.68 0.63 0.59 0.57 0.56 0.55 0.55 0.54 0.51 0.50 0.50 0.50 0.50 0.49 0.49 0.49 0.48 0.38 0.37 0.36 0.34 0.25 0.32 0.48 0.43 0.32 0.33 0.37 0.37 0.35 0.29 0.28 0.37 0.37 0.39 0.39 0.39 0.34 0.28 0.25 0.24 0.23 0.18 0.18 0.19 0.20 0.19 0.19 0.18 0.17 0.18 0.19 0.17 0.17 0.17 0.17 0.18 0.16 0.18 0.20 0.21 0.21 0.21 0.18 0.16 0.18 0.19 0.32 0.40 0.48 0.61 0.71 0.75 0.86 0.91 0.91 0.96 1.00 1.02 1.05 1.11 1.13
0.77 0.81 0.82 0.79 0.79 0.75 0.70 0.64 0.61 0.58 0.56 0.55 0.53 0.52 0.51 0.50 0.49 0.50 0.50 0.49 0.46 0.49 0.43 0.31 0.44 0.47 0.19 0.28 0.40 0.32 0.30 0.36 0.38 0.34 0.34 0.34 0.28 0.27 0.28 0.33 0.32 0.31 0.33 0.32 0.29 0.27 0.26 0.21 0.19 0.19 0.19 0.18 0.19 0.19 0.16 0.15 0.16 0.16 0.18 0.17 0.18 0.16 0.16 0.15 0.19 0.20 0.20 0.23 0.20 0.19 0.19 0.19 0.20 0.36 0.40 0.48 0.67 0.66 0.71 0.82 0.87 0.92 0.96 1.02 1.06 1.09 1.13 1.13
0.68 0.77 0.80 0.80 0.78 0.76 0.71 0.65 0.60 0.58 0.56 0.54 0.52 0.50 0.47 0.49 0.51 0.48 0.44 0.45 0.46 0.39 0.38 0.49 0.49 0.39 0.27 0.35 0.26 0.25 0.32 0.32 0.33 0.32 0.32 0.32 0.28 0.24 0.24 0.27 0.32 0.30 0.28 0.27 0.29 0.23 0.25 0.20 0.19 0.15 0.16 0.17 0.18 0.18 0.15 0.12 0.15 0.15 0.16 0.15 0.16 0.16 0.16 0.16 0.16 0.19 0.19 0.22 0.20 0.19 0.20 0.23 0.27 0.41 0.44 0.45 0.75 0.63 0.69 0.80 0.88 0.94 0.99 1.03 1.06 1.08 1.13 1.15
0.69 0.77 0.79 0.80 0.80 0.77 0.72 0.67 0.61 0.58 0.57 0.55 0.53 0.53 0.51 0.52 0.51 0.48 0.38 0.40 0.31 0.26 0.19 0.24 0.31 0.18 0.17 0.25 0.26 0.29 0.30 0.33 0.35 0.30 0.27 0.28 0.26 0.24 0.25 0.27 0.33 0.28 0.24 0.22 0.23 0.22 0.27 0.23 0.19 0.15 0.12 0.15 0.16 0.16 0.15 0.16 0.18 0.18 0.17 0.16 0.15 0.14 0.14 0.15 0.18 0.20 0.21 0.20 0.19 0.20 0.20 0.33 0.43 0.46 0.60 0.65 0.68 0.66 0.75 0.83 0.91 0.97 1.01 1.03 1.05 1.07 1.11 1.11
0.64 0.73 0.77 0.78 0.79 0.78 0.72 0.67 0.63 0.59 0.59 0.53 0.48 0.46 0.43 0.30 0.29 0.27 0.36 0.36 0.26 0.22 0.20 0.27 0.29 0.23 0.27 0.30 0.32 0.33 0.36 0.35 0.30 0.30 0.27 0.27 0.24 0.22 0.23 0.24 0.29 0.29 0.25 0.18 0.22 0.23 0.28 0.18 0.15 0.13 0.13 0.15 0.17 0.17 0.16 0.19 0.20 0.20 0.19 0.20 0.15 0.15 0.14 0.17 0.18 0.21 0.22 0.21 0.18 0.20 0.22 0.26 0.38 0.59 0.70 0.63 0.67 0.71 0.77 0.82 0.87 0.93 0.97 0.97 1.01 1.05 1.09 1.09
0.62 0.67 0.74 0.78 0.78 0.78 0.73 0.67 0.64 0.60 0.59 0.54 0.47 0.38 0.22 0.20 0.28 0.29 0.40 0.34 0.28 0.23 0.22 0.28 0.33 0.28 0.22 0.28 0.30 0.35 0.30 0.30 0.31 0.30 0.27 0.28 0.23 0.21 0.20 0.22 0.27 0.22 0.24 0.22 0.22 0.26 0.27 0.19 0.16 0.17 0.16 0.15 0.17 0.17 0.16 0.18 0.21 0.22 0.21 0.20 0.17 0.14 0.14 0.17 0.18 0.21 0.22 0.20 0.19 0.21 0.21 0.50 0.56 0.59 0.65 0.70 0.74 0.74 0.77 0.80 0.86 0.90 0.94 0.98 1.00 1.02 1.04 1.06
0.62 0.69 0.71 0.74 0.78 0.78 0.72 0.68 0.65 0.63 0.59 0.55 0.45 0.31 0.29 0.42 0.49 0.54 0.45 0.32 0.40 0.36 0.24 0.21 0.29 0.30 0.34 0.37 0.39 0.41 0.36 0.30 0.28 0.28 0.29 0.26 0.20 0.18 0.20 0.21 0.25 0.20 0.24 0.23 0.24 0.22 0.20 0.18 0.19 0.19 0.17 0.15 0.16 0.16 0.16 0.18 0.19 0.22 0.20 0.20 0.19 0.16 0.16 0.18 0.19 0.21 0.22 0.21 0.20 0.22 0.35 0.53 0.58 0.62 0.71 0.71 0.72 0.82 0.86 0.82 0.83 0.85 0.88 0.92 0.97 1.01 1.04 1.05
0.61 0.65 0.69 0.72 0.74 0.77 0.72 0.68 0.65 0.62 0.56 0.47 0.36 0.33 0.29 0.49 0.56 0.57 0.51 0.39 0.33 0.42 0.38 0.29 0.20 0.22 0.24 0.32 0.35 0.38 0.31 0.27 0.25 0.26 0.26 0.23 0.18 0.18 0.20 0.23 0.25 0.22 0.22 0.22 0.19 0.19 0.17 0.18 0.20 0.20 0.17 0.14 0.13 0.14 0.13 0.17 0.19 0.20 0.20 0.18 0.17 0.18 0.16 0.15 0.18 0.21 0.22 0.21 0.22 0.35 0.40 0.52 0.63 0.71 0.71 0.77 0.75 0.79 0.86 0.85 0.85 0.89 0.89 0.91 0.95 1.00 1.01 1.02
0.61 0.66 0.69 0.72 0.75 0.75 0.71 0.66 0.65 0.58 0.50 0.45 0.40 0.33 0.36 0.47 0.54 0.55 0.44 0.32 0.28 0.35 0.38 0.34 0.28 0.24 0.21 0.25 0.33 0.34 0.29 0.27 0.25 0.24 0.25 0.20 0.17 0.18 0.23 0.25 0.25 0.22 0.20 0.20 0.20 0.19 0.16 0.17 0.20 0.19 0.16 0.14 0.12 0.12 0.13 0.14 0.17 0.19 0.20 0.19 0.18 0.18 0.19 0.18 0.20 0.21 0.23 0.24 0.33 0.34 0.39 0.46 0.55 0.54 0.61 0.74 0.80 0.78 0.81 0.83 0.85 0.91 0.97 1.00 1.03 1.04 1.04 0.99
0.61 0.64 0.67 0.69 0.73 0.74 0.68 0.66 0.54 0.46 0.49 0.45 0.37 0.39 0.39 0.52 0.57 0.53 0.39 0.30 0.29 0.27 0.42 0.40 0.39 0.27 0.23 0.34 0.35 0.29 0.29 0.29 0.24 0.25 0.22 0.19 0.18 0.18 0.21 0.30 0.27 0.20 0.21 0.20 0.19 0.19 0.19 0.19 0.18 0.17 0.16 0.14 0.13 0.13 0.13 0.15 0.16 0.17 0.20 0.20 0.19 0.19 0.20 0.19 0.23 0.22 0.21 0.25 0.36 0.29 0.26 0.34 0.51 0.54 0.56 0.66 0.69 0.69 0.78 0.75 0.77 0.83 0.91 0.97 0.97 1.00 1.02 1.01
0.64 0.67 0.72 0.71 0.72 0.70 0.69 0.52 0.44 0.52 0.46 0.35 0.33 0.38 0.44 0.55 0.54 0.49 0.36 0.24 0.17 0.23 0.34 0.25 0.40 0.24 0.31 0.28 0.32 0.29 0.30 0.25 0.27 0.24 0.23 0.21 0.21 0.19 0.22 0.26 0.27 0.22 0.23 0.21 0.18 0.18 0.19 0.22 0.19 0.15 0.15 0.14 0.13 0.13 0.14 0.16 0.17 0.17 0.18 0.22 0.21 0.20 0.22 0.24 0.22 0.22 0.20 0.23 0.34 0.33 0.22 0.30 0.47 0.49 0.55 0.60 0.60 0.62 0.70 0.70 0.72 0.78 0.83 0.87 0.90 0.94 0.95 0.95
0.66 0.67 0.69 0.71 0.71 0.69 0.52 0.36 0.54 0.52 0.38 0.38 0.49 0.46 0.49 0.51 0.53 0.46 0.26 0.18 0.13 0.18 0.19 0.30 0.30 0.26 0.25 0.28 0.29 0.30 0.18 0.22 0.30 0.31 0.25 0.24 0.20 0.22 0.19 0.22 0.27 0.29 0.28 0.27 0.21 0.17 0.20 0.22 0.20 0.18 0.15 0.14 0.13 0.13 0.15 0.17 0.18 0.16 0.21 0.22 0.22 0.21 0.22 0.25 0.23 0.22 0.21 0.31 0.37 0.33 0.29 0.27 0.30 0.46 0.56 0.58 0.56 0.57 0.60 0.63 0.67 0.72 0.79 0.83 0.84 0.87 0.90 0.92
0.66 0.67 0.69 0.71 0.68 0.63 0.50 0.51 0.49 0.42 0.45 0.52 0.59 0.50 0.51 0.51 0.54 0.44 0.26 0.13 0.10 0.25 0.17 0.25 0.28 0.34 0.22 0.28 0.30 0.23 0.23 0.27 0.23 0.26 0.30 0.26 0.23 0.20 0.20 0.21 0.25 0.25 0.29 0.27 0.18 0.21 0.19 0.20 0.21 0.18 0.16 0.14 0.13 0.14 0.17 0.18 0.17 0.17 0.20 0.22 0.22 0.22 0.24 0.27 0.23 0.22 0.23 0.28 0.28 0.31 0.32 0.26 0.29 0.42 0.57 0.58 0.51 0.54 0.55 0.59 0.63 0.67 0.72 0.78 0.81 0.83 0.84 0.87
0.65 0.67 0.69 0.70 0.66 0.64 0.60 0.52 0.49 0.42 0.54 0.59 0.58 0.57 0.52 0.52 0.41 0.30 0.22 0.13 0.25 0.22 0.34 0.21 0.37 0.29 0.22 0.26 0.25 0.24 0.23 0.25 0.20 0.25 0.29 0.27 0.26 0.21 0.18 0.21 0.27 0.27 0.29 0.27 0.22 0.24 0.22 0.20 0.22 0.21 0.18 0.14 0.15 0.16 0.17 0.18 0.15 0.18 0.20 0.23 0.24 0.24 0.25 0.25 0.22 0.21 0.21 0.24 0.24 0.30 0.34 0.24 0.29 0.43 0.48 0.55 0.50 0.49 0.52 0.56 0.60 0.65 0.68 0.71 0.75 0.79 0.82 0.84
0.64 0.66 0.70 0.68 0.63 0.57 0.52 0.55 0.50 0.60 0.65 0.63 0.56 0.60 0.53 0.43 0.31 0.19 0.17 0.09 0.26 0.19 0.26 0.26 0.23 0.20 0.21 0.19 0.21 0.22 0.20 0.22 0.23 0.25 0.25 0.22 0.24 0.23 0.21 0.24 0.24 0.27 0.25 0.27 0.25 0.25 0.25 0.22 0.26 0.24 0.20 0.19 0.17 0.16 0.17 0.18 0.19 0.20 0.19 0.20 0.22 0.22 0.21 0.22 0.21 0.21 0.21 0.17 0.21 0.30 0.32 0.23 0.23 0.36 0.40 0.40 0.41 0.49 0.55 0.60 0.64 0.66 0.69 0.70 0.69 0.71 0.74 0.77
0.66 0.67 0.67 0.66 0.52 0.55 0.56 0.47 0.55 0.68 0.66 0.64 0.58 0.61 0.49 0.36 0.22 0.17 0.10 0.17 0.25 0.25 0.28 0.26 0.20 0.23 0.18 0.16 0.16 0.20 0.19 0.20 0.21 0.23 0.21 0.22 0.22 0.22 0.20 0.20 0.25 0.25 0.26 0.25 0.23 0.24 0.25 0.25 0.22 0.25 0.26 0.23 0.20 0.16 0.17 0.18 0.21 0.22 0.18 0.18 0.19 0.19 0.20 0.19 0.19 0.21 0.18 0.16 0.19 0.22 0.25 0.25 0.18 0.33 0.47 0.54 0.57 0.59 0.57 0.57 0.60 0.65 0.68 0.68 0.68 0.68 0.70 0.72
0.69 0.69 0.67 0.62 0.56 0.61 0.48 0.48 0.60 0.69 0.68 0.61 0.55 0.48 0.37 0.19 0.25 0.15 0.11 0.31 0.18 0.23 0.24 0.23 0.23 0.20 0.18 0.18 0.16 0.16 0.16 0.18 0.20 0.21 0.19 0.19 0.19 0.18 0.18 0.17 0.21 0.18 0.19 0.21 0.20 0.24 0.23 0.24 0.25 0.25 0.28 0.24 0.19 0.16 0.16 0.17 0.21 0.21 0.19 0.19 0.15 0.15 0.16 0.14 0.15 0.14 0.15 0.15 0.20 0.22 0.23 0.25 0.24 0.39 0.49 0.55 0.58 0.62 0.65 0.65 0.65 0.67 0.70 0.70 0.72 0.71 0.69 0.69
0.67 0.67 0.65 0.62 0.59 0.55 0.59 0.68 0.71 0.69 0.68 0.59 0.48 0.44 0.28 0.18 0.11 0.16 0.21 0.26 0.20 0.27 0.24 0.27 0.22 0.20 0.19 0.18 0.15 0.15 0.16 0.15 0.19 0.20 0.21 0.21 0.20 0.19 0.20 0.20 0.23 0.21 0.17 0.21 0.22 0.20 0.21 0.26 0.25 0.25 0.26 0.25 0.21 0.15 0.15 0.15 0.18 0.19 0.18 0.18 0.15 0.13 0.13 0.12 0.14 0.15 0.17 0.20 0.22 0.22 0.25 0.26 0.42 0.50 0.60 0.60 0.67 0.72 0.74 0.74 0.74 0.74 0.74 0.74 0.75 0.75 0.73 0.71
0.64 0.64 0.57 0.58 0.56 0.57 0.65 0.70 0.71 0.70 0.62 0.56 0.43 0.34 0.27 0.16 0.13 0.23 0.25 0.27 0.28 0.29 0.28 0.25 0.23 0.21 0.19 0.16 0.16 0.15 0.13 0.16 0.17 0.18 0.21 0.21 0.21 0.18 0.18 0.21 0.22 0.23 0.24 0.23 0.19 0.19 0.17 0.17 0.21 0.24 0.21 0.26 0.22 0.19 0.19 0.17 0.19 0.22 0.22 0.21 0.18 0.16 0.13 0.11 0.13 0.13 0.15 0.19 0.21 0.23 0.23 0.26 0.33 0.44 0.66 0.69 0.74 0.76 0.80 0.79 0.80 0.81 0.80 0.79 0.78 0.77 0.76 0.73
0.65 0.61 0.59 0.58 0.56 0.59 0.65 0.69 0.71 0.69 0.59 0.48 0.37 0.27 0.17 0.15 0.21 0.21 0.24 0.29 0.34 0.37 0.26 0.28 0.23 0.20 0.18 0.18 0.18 0.16 0.15 0.14 0.17 0.18 0.20 0.22 0.19 0.19 0.16 0.17 0.21 0.24 0.26 0.22 0.21 0.21 0.18 0.18 0.23 0.25 0.25 0.26 0.21 0.22 0.24 0.23 0.21 0.24 0.23 0.22 0.19 0.15 0.18 0.14 0.16 0.16 0.17 0.19 0.19 0.28 0.28 0.45 0.44 0.67 0.71 0.75 0.76 0.75 0.78 0.77 0.76 0.74 0.75 0.74 0.72 0.72 0.73 0.73
0.58 0.54 0.57 0.50 0.51 0.56 0.65 0.68 0.69 0.65 0.53 0.42 0.32 0.22 0.16 0.20 0.22 0.30 0.31 0.43 0.41 0.35 0.37 0.37 0.25 0.20 0.17 0.17 0.18 0.16 0.17 0.16 0.16 0.19 0.22 0.23 0.23 0.19 0.19 0.18 0.19 0.23 0.24 0.22 0.22 0.19 0.20 0.17 0.24 0.25 0.24 0.23 0.23 0.24 0.25 0.28 0.19 0.21 0.19 0.16 0.16 0.20 0.20 0.17 0.18 0.20 0.21 0.20 0.24 0.44 0.40 0.50 0.63 0.66 0.69 0.69 0.69 0.71 0.73 0.71 0.70 0.70 0.71 0.71 0.70 0.71 0.71 0.70
0.49 0.55 0.46 0.48 0.50 0.59 0.65 0.67 0.67 0.59 0.49 0.40 0.31 0.20 0.24 0.30 0.35 0.33 0.41 0.39 0.41 0.42 0.40 0.27 0.22 0.19 0.16 0.15 0.16 0.16 0.15 0.16 0.16 0.17 0.20 0.24 0.22 0.22 0.19 0.17 0.20 0.22 0.25 0.28 0.24 0.25 0.20 0.19 0.23 0.24 0.21 0.25 0.26 0.27 0.28 0.28 0.27 0.20 0.15 0.16 0.21 0.22 0.23 0.21 0.15 0.17 0.16 0.15 0.27 0.37 0.31 0.39 0.39 0.36 0.64 0.63 0.61 0.64 0.66 0.66 0.67 0.69 0.70 0.68 0.68 0.67 0.68 0.70
0.51 0.50 0.50 0.48 0.51 0.60 0.64 0.67 0.63 0.55 0.42 0.36 0.28 0.28 0.35 0.32 0.38 0.38 0.43 0.42 0.43 0.43 0.37 0.31 0.28 0.23 0.18 0.17 0.16 0.16 0.16 0.14 0.15 0.15 0.19 0.21 0.18 0.22 0.19 0.18 0.19 0.22 0.26 0.30 0.28 0.25 0.26 0.21 0.22 0.23 0.23 0.25 0.29 0.27 0.27 0.28 0.28 0.23 0.19 0.20 0.18 0.17 0.16 0.21 0.20 0.15 0.14 0.13 0.24 0.31 0.37 0.38 0.38 0.39 0.51 0.51 0.54 0.57 0.61 0.64 0.65 0.64 0.65 0.65 0.65 0.67 0.69 0.70
0.54 0.48 0.36 0.46 0.57 0.60 0.62 0.66 0.59 0.47 0.36 0.27 0.28 0.25 0.31 0.35 0.39 0.38 0.40 0.43 0.46 0.43 0.36 0.38 0.33 0.26 0.22 0.18 0.19 0.19 0.17 0.13 0.15 0.15 0.16 0.20 0.17 0.21 0.19 0.19 0.17 0.21 0.26 0.30 0.28 0.31 0.28 0.22 0.22 0.26 0.25 0.27 0.27 0.26 0.20 0.22 0.26 0.27 0.26 0.22 0.20 0.21 0.19 0.18 0.19 0.21 0.18 0.15 0.18 0.27 0.32 0.28 0.42 0.46 0.51 0.51 0.55 0.57 0.59 0.60 0.61 0.63 0.65 0.65 0.65 0.66 0.68 0.69
0.48 0.40 0.35 0.50 0.57 0.60 0.65 0.62 0.49 0.43 0.32 0.23 0.25 0.27 0.35 0.32 0.35 0.39 0.44 0.44 0.42 0.41 0.39 0.37 0.38 0.31 0.31 0.21 0.22 0.19 0.18 0.15 0.15 0.16 0.16 0.20 0.18 0.23 0.20 0.21 0.18 0.18 0.24 0.29 0.29 0.33 0.27 0.27 0.22 0.24 0.28 0.30 0.24 0.26 0.21 0.22 0.20 0.21 0.22 0.21 0.20 0.18 0.23 0.22 0.23 0.20 0.19 0.18 0.18 0.22 0.24 0.31 0.44 0.57 0.53 0.54 0.57 0.59 0.60 0.60 0.62 0.64 0.65 0.67 0.68 0.68 0.69 0.70
0.56 0.46 0.40 0.54 0.56 0.63 0.62 0.53 0.39 0.32 0.28 0.30 0.32 0.32 0.34 0.32 0.36 0.38 0.40 0.44 0.45 0.49 0.42 0.39 0.36 0.33 0.34 0.33 0.22 0.22 0.18 0.16 0.16 0.17 0.17 0.20 0.21 0.18 0.22 0.20 0.20 0.19 0.22 0.28 0.29 0.31 0.29 0.28 0.23 0.25 0.24 0.23 0.24 0.27 0.26 0.24 0.23 0.22 0.22 0.21 0.21 0.19 0.18 0.17 0.17 0.21 0.21 0.20 0.21 0.20 0.21 0.33 0.52 0.65 0.63 0.59 0.62 0.63 0.64 0.64 0.64 0.65 0.66 0.67 0.68 0.69 0.71 0.71
0.46 0.35 0.38 0.58 0.61 0.62 0.50 0.35 0.33 0.37 0.31 0.27 0.27 0.32 0.32 0.38 0.36 0.36 0.40 0.45 0.46 0.42 0.47 0.41 0.40 0.37 0.37 0.33 0.34 0.21 0.17 0.15 0.17 0.18 0.20 0.20 0.24 0.22 0.23 0.23 0.22 0.22 0.21 0.24 0.25 0.30 0.31 0.30 0.26 0.23 0.23 0.23 0.25 0.28 0.29 0.27 0.26 0.24 0.24 0.22 0.23 0.22 0.21 0.19 0.15 0.17 0.19 0.20 0.28 0.27 0.24 0.34 0.61 0.68 0.69 0.63 0.65 0.66 0.66 0.67 0.65 0.66 0.67 0.69 0.70 0.71 0.73 0.73
0.46 0.38 0.55 0.62 0.63 0.58 0.43 0.32 0.34 0.32 0.29 0.32 0.37 0.37 0.39 0.36 0.35 0.35 0.37 0.43 0.42 0.44 0.42 0.41 0.40 0.37 0.38 0.38 0.33 0.28 0.18 0.16 0.18 0.18 0.20 0.22 0.25 0.26 0.26 0.25 0.25 0.23 0.24 0.26 0.26 0.29 0.31 0.28 0.24 0.24 0.26 0.28 0.29 0.30 0.30 0.28 0.26 0.24 0.24 0.25 0.24 0.21 0.21 0.20 0.19 0.21 0.19 0.20 0.23 0.28 0.25 0.39 0.62 0.74 0.70 0.67 0.68 0.67 0.68 0.68 0.66 0.66 0.68 0.69 0.70 0.71 0.71 0.71
0.48 0.43 0.45 0.55 0.60 0.57 0.37 0.25 0.26 0.28 0.31 0.34 0.36 0.36 0.38 0.35 0.34 0.33 0.37 0.42 0.42 0.41 0.41 0.42 0.43 0.45 0.40 0.41 0.36 0.29 0.26 0.15 0.18 0.18 0.20 0.23 0.24 0.29 0.27 0.27 0.26 0.23 0.22 0.23 0.21 0.29 0.24 0.27 0.25 0.22 0.21 0.22 0.24 0.26 0.26 0.27 0.26 0.23 0.23 0.26 0.26 0.24 0.23 0.22 0.22 0.23 0.19 0.21 0.29 0.24 0.21 0.35 0.61 0.71 0.69 0.67 0.66 0.66 0.66 0.68 0.69 0.66 0.68 0.69 0.69 0.70 0.70 0.70
0.51 0.52 0.47 0.47 0.54 0.50 0.32 0.35 0.32 0.32 0.32 0.33 0.35 0.34 0.36 0.37 0.35 0.37 0.40 0.40 0.44 0.43 0.44 0.41 0.44 0.44 0.39 0.42 0.36 0.34 0.32 0.28 0.16 0.18 0.21 0.24 0.26 0.28 0.28 0.27 0.26 0.24 0.22 0.26 0.27 0.33 0.26 0.26 0.23 0.21 0.18 0.16 0.15 0.16 0.18 0.20 0.21 0.24 0.25 0.25 0.25 0.22 0.21 0.20 0.18 0.19 0.17 0.28 0.28 0.26 0.31 0.47 0.59 0.64 0.64 0.65 0.65 0.65 0.68 0.68 0.70 0.70 0.68 0.68 0.68 0.68 0.69 0.69
0.42 0.31 0.44 0.45 0.46 0.43 0.41 0.44 0.41 0.36 0.34 0.36 0.34 0.34 0.35 0.33 0.36 0.41 0.43 0.41 0.45 0.45 0.46 0.46 0.46 0.45 0.39 0.37 0.34 0.31 0.28 0.30 0.23 0.16 0.19 0.24 0.27 0.28 0.29 0.27 0.25 0.26 0.25 0.27 0.28 0.30 0.27 0.27 0.26 0.25 0.23 0.21 0.21 0.23 0.26 0.25 0.23 0.21 0.22 0.23 0.23 0.22 0.22 0.22 0.22 0.20 0.17 0.28 0.27 0.29 0.31 0.42 0.48 0.54 0.58 0.61 0.63 0.62 0.62 0.64 0.64 0.65 0.67 0.68 0.69 0.69 0.69 0.69
0.44 0.30 0.29 0.26 0.33 0.36 0.35 0.37 0.35 0.39 0.35 0.40 0.33 0.37 0.37 0.38 0.40 0.41 0.46 0.37 0.42 0.43 0.46 0.46 0.44 0.39 0.38 0.36 0.34 0.31 0.30 0.27 0.26 0.23 0.21 0.25 0.28 0.28 0.30 0.28 0.27 0.28 0.29 0.29 0.29 0.28 0.29 0.25 0.26 0.26 0.27 0.30 0.29 0.30 0.34 0.28 0.22 0.22 0.22 0.22 0.23 0.22 0.21 0.21 0.19 0.20 0.28 0.25 0.23 0.35 0.39 0.34 0.42 0.50 0.55 0.58 0.62 0.64 0.64 0.63 0.64 0.65 0.66 0.67 0.68 0.69 0.68 0.68
0.35 0.35 0.41 0.39 0.28 0.27 0.27 0.29 0.35 0.36 0.38 0.39 0.35 0.38 0.35 0.36 0.38 0.36 0.43 0.46 0.46 0.50 0.43 0.45 0.45 0.43 0.41 0.36 0.36 0.29 0.29 0.27 0.24 0.24 0.20 0.26 0.28 0.28 0.28 0.29 0.28 0.30 0.32 0.31 0.31 0.26 0.25 0.23 0.27 0.27 0.28 0.35 0.33 0.34 0.36 0.36 0.34 0.24 0.22 0.22 0.22 0.23 0.23 0.21 0.23 0.27 0.27 0.23 0.23 0.36 0.42 0.36 0.45 0.51 0.56 0.59 0.61 0.62 0.63 0.64 0.66 0.68 0.69 0.69 0.68 0.66 0.66 0.67
0.52 0.45 0.45 0.48 0.35 0.35 0.35 0.37 0.40 0.39 0.37 0.39 0.36 0.39 0.35 0.37 0.37 0.43 0.43 0.43 0.46 0.47 0.48 0.38 0.40 0.45 0.46 0.47 0.42 0.34 0.32 0.24 0.23 0.35 0.24 0.24 0.27 0.27 0.27 0.27 0.29 0.34 0.31 0.32 0.31 0.31 0.27 0.25 0.28 0.27 0.28 0.31 0.36 0.36 0.37 0.36 0.35 0.33 0.28 0.27 0.28 0.26 0.28 0.28 0.33 0.33 0.28 0.27 0.34 0.40 0.44 0.42 0.48 0.52 0.57 0.61 0.65 0.66 0.67 0.69 0.68 0.66 0.65 0.66 0.65 0.65 0.65 0.66
0.46 0.44 0.40 0.47 0.44 0.40 0.42 0.41 0.41 0.42 0.36 0.39 0.34 0.37 0.37 0.38 0.37 0.42 0.46 0.45 0.39 0.42 0.50 0.42 0.43 0.45 0.43 0.47 0.44 0.35 0.40 0.40 0.34 0.34 0.34 0.33 0.30 0.30 0.29 0.29 0.31 0.30 0.31 0.29 0.29 0.31 0.26 0.26 0.28 0.29 0.29 0.31 0.39 0.40 0.42 0.41 0.37 0.32 0.34 0.34 0.34 0.35 0.35 0.37 0.37 0.38 0.37 0.37 0.40 0.44 0.43 0.42 0.55 0.61 0.60 0.65 0.66 0.68 0.68 0.66 0.66 0.66 0.65 0.63 0.62 0.63 0.64 0.64
0.61 0.62 0.59 0.44 0.37 0.40 0.44 0.43 0.41 0.41 0.38 0.40 0.36 0.37 0.38 0.39 0.39 0.44 0.44 0.48 0.44 0.41 0.46 0.43 0.47 0.47 0.48 0.47 0.44 0.42 0.46 0.44 0.43 0.47 0.46 0.38 0.31 0.38 0.33 0.32 0.35 0.28 0.29 0.31 0.31 0.31 0.28 0.32 0.33 0.31 0.26 0.30 0.38 0.39 0.42 0.43 0.39 0.36 0.35 0.37 0.41 0.39 0.34 0.40 0.37 0.41 0.35 0.37 0.40 0.42 0.40 0.41 0.54 0.61 0.62 0.63 0.64 0.64 0.63 0.64 0.64 0.63 0.62 0.60 0.60 0.61 0.62 0.61
0.70 0.69 0.67 0.57 0.40 0.46 0.41 0.45 0.44 0.41 0.31 0.43 0.41 0.41 0.39 0.39 0.43 0.44 0.38 0.43 0.45 0.45 0.46 0.47 0.47 0.44 0.43 0.43 0.41 0.45 0.50 0.50 0.51 0.56 0.50 0.46 0.49 0.44 0.45 0.45 0.40 0.34 0.29 0.30 0.32 0.30 0.32 0.32 0.31 0.30 0.26 0.30 0.39 0.40 0.40 0.41 0.36 0.30 0.33 0.40 0.43 0.46 0.45 0.45 0.46 0.48 0.42 0.42 0.38 0.34 0.35 0.48 0.54 0.59 0.57 0.59 0.62 0.64 0.64 0.63 0.62 0.61 0.59 0.59 0.59 0.60 0.60 0.60
Wind_Speed
26 26 26 27 27 27 27 28 28 28 28 28 28 28 28 28 29 29 29 29 28 28 27 27 26 25 25 24 24 23 23 22 22 22 22 22 22 22 21 20 20 21 20 19 19 19 18 18 19 18 17 17 18 17 17 17 17 17 15 15 14 13 12 10 10 10 9 11 12 12 11 10 10 11 10 10 10 9 8 6 5 5 4 6 8 9 9 9
26 26 26 27 27 27 27 27 28 28 28 28 28 28 28 28 28 29 29 29 28 28 27 27 27 26 25 24 24 23 23 23 23 23 23 23 23 21 21 20 19 19 19 19 19 19 19 18 18 18 17 18 17 17 17 17 17 17 15 15 15 13 11 9 11 11 9 11 11 11 12 11 11 12 12 11 10 10 10 7 7 6 5 7 7 9 9 9
26 26 26 26 27 27 27 27 27 28 28 28 28 28 28 28 28 29 29 29 29 28 28 27 27 26 26 25 24 23 23 23 23 24 24 24 25 22 21 20 20 19 19 19 19 19 19 19 19 18 18 18 17 17 17 16 17 17 16 15 15 14 12 12 12 10 10 11 9 10 10 10 11 12 12 13 12 10 12 11 9 8 8 8 8 9 9 8
27 27 26 26 26 27 27 27 27 28 28 28 28 28 28 29 28 28 29 29 29 29 28 27 27 27 26 25 24 23 23 23 22 22 23 24 24 23 22 21 20 20 19 18 19 19 19 19 18 18 18 17 17 18 17 17 16 16 16 15 15 14 13 13 13 12 12 11 10 10 8 7 10 11 11 14 13 12 13 13 11 11 11 10 9 9 9 9
28 28 27 27 26 26 27 27 27 27 28 28 28 28 28 29 29 28 28 29 29 29 28 28 27 27 26 26 25 24 22 21 21 20 21 22 23 23 23 21 20 20 19 18 18 18 19 19 17 18 18 17 17 17 18 19 17 16 17 17 15 15 15 15 14 13 13 12 12 11 8 7 10 10 12 14 13 12 13 13 12 11 12 11 10 10 9 8
29 29 28 28 27 27 27 27 27 27 28 28 28 28 28 28 29 29 28 28 28 28 28 28 27 27 27 26 26 25 23 22 20 19 19 19 21 22 22 21 21 20 19 19 18 18 18 18 17 17 17 17 18 17 17 19 18 16 17 17 17 17 17 15 13 14 13 13 12 11 9 9 9 9 10 12 11 12 14 14 12 11 11 11 11 11 10 8
31 30 29 29 28 28 27 27 27 27 27 27 28 28 28 28 28 28 28 28 28 28 28 28 27 27 27 26 26 26 26 25 22 19 19 19 19 21 22 22 21 20 20 19 19 18 18 18 18 17 16 16 17 18 18 18 18 17 16 17 17 18 19 14 11 13 14 16 14 11 10 9 10 9 7 9 11 13 15 14 13 12 11 11 11 10 9 8
33 32 31 30 30 29 28 28 27 27 27 27 27 27 27 28 28 28 28 28 28 28 28 27 27 27 27 26 27 27 27 28 25 21 21 20 20 21 21 22 22 21 21 20 20 19 18 19 19 17 15 16 16 17 18 18 18 17 17 18 17 18 18 15 12 13 14 18 18 14 12 11 12 9 7 12 13 14 15 13 12 12 11 11 10 10 9 7
34 34 33 32 31 30 30 29 28 28 27 27 27 27 27 27 27 28 28 28 27 27 27 27 27 27 27 27 27 26 27 29 27 25 23 22 21 21 21 21 22 22 21 21 21 20 19 19 19 17 15 15 16 16 17 17 17 17 17 18 18 17 17 17 16 14 14 16 17 16 15 13 13 11 10 13 15 15 15 13 12 12 11 11 10 9 9 7
35 35 34 33 32 31 30 30 29 28 28 27 27 26 26 27 27 28 28 28 27 27 27 27 27 27 27 27 27 26 26 28 29 27 25 23 22 22 21 22 22 23 22 21 21 21 20 19 19 17 16 16 16 16 16 16 16 18 18 19 20 18 16 16 17 16 15 13 14 16 17 16 14 13 14 15 15 15 15 14 12 11 10 10 9 9 8 7
36 35 35 35 34 33 31 31 30 29 28 28 27 27 27 27 27 27 28 28 28 27 27 27 27 27 27 27 27 26 24 24 27 26 26 25 23 22 22 22 22 23 23 22 22 21 21 21 19 17 17 16 16 16 16 16 17 17 17 17 20 20 16 15 16 15 14 13 14 16 17 18 15 14 17 17 16 14 14 14 13 11 10 9 8 8 7 6
37 36 35 35 35 34 33 32 31 30 29 28 28 28 27 27 27 27 27 27 28 27 27 27 27 27 28 28 29 28 25 24 24 24 25 26 24 23 22 22 23 23 23 22 22 22 22 21 20 18 17 15 15 15 15 15 16 17 17 16 18 19 18 16 16 16 14 14 15 15 16 18 17 17 18 18 17 16 15 14 13 12 11 10 7 7 7 6
38 37 36 35 35 34 33 32 31 30 30 29 28 28 28 27 27 26 26 27 27 27 27 27 27 28 28 28 29 30 29 27 25 24 24 25 25 24 23 22 23 23 23 23 22 21 22 22 21 20 19 16 15 13 13 14 15 15 17 16 16 17 18 17 16 17 15 15 16 15 14 17 18 18 18 18 18 17 15 14 13 13 12 11 8 7 7 6
40 38 37 36 35 34 34 33 32 31 30 30 29 29 28 28 27 26 26 26 27 27 27 27 27 28 28 28 29 31 33 30 28 27 24 24 25 25 25 23 23 24 24 24 23 22 22 22 21 21 21 19 17 14 14 14 15 14 14 15 15 16 17 17 16 16 15 15 17 16 14 16 17 17 19 20 18 16 15 14 14 13 13 11 9 8 7 6
40 39 38 37 35 35 34 33 32 31 30 30 29 29 28 28 28 27 26 26 26 27 27 27 28 28 28 28 28 30 33 33 32 30 26 25 25 25 25 24 24 24 24 24 24 23 23 22 22 21 20 20 18 16 15 14 14 15 15 15 16 16 16 17 17 16 15 15 17 17 14 16 16 17 19 19 16 16 15 14 14 14 13 12 10 9 8 6
40 40 39 37 36 35 34 33 32 31 30 30 29 29 29 28 28 28 27 26 26 26 26 26 27 28 27 27 27 29 31 32 33 30 27 27 26 25 25 25 24 24 24 24 24 24 23 22 22 21 20 19 18 17 15 14 14 15 16 15 15 16 16 16 16 16 16 15 16 17 16 15 15 18 19 17 15 17 15 14 14 14 14 12 11 9 8 7
41 40 39 38 36 35 34 33 32 31 30 30 29 29 28 28 28 28 27 27 26 26 26 26 26 27 27 26 26 29 31 31 31 30 29 28 27 26 26 25 24 24 24 25 25 24 23 22 21 20 20 19 18 17 16 16 15 15 16 15 15 16 16 16 16 15 17 16 15 17 16 14 16 19 19 17 17 16 15 15 15 15 14 13 11 10 9 7
41 40 39 38 37 36 34 33 32 31 30 29 28 28 28 28 28 27 27 26 26 25 26 26 26 25 26 27 28 28 30 30 30 30 30 29 28 28 27 24 24 24 25 25 25 24 22 22 21 19 20 20 19 19 18 17 16 15 15 15 15 16 16 17 17 15 16 17 15 17 15 12 15 18 16 17 17 16 15 15 15 15 15 13 12 10 9 7
40 39 38 37 36 35 34 32 31 30 30 29 28 27 27 27 27 27 27 26 26 25 25 26 27 24 21 24 27 27 28 28 29 31 31 30 29 29 28 25 24 25 25 24 24 24 22 21 21 21 21 22 21 20 18 17 16 15 15 14 15 16 16 16 17 16 16 16 16 17 15 12 13 14 15 16 17 16 16 15 15 15 14 13 12 10 9 7
40 40 39 37 36 35 34 32 31 30 29 28 27 26 26 26 25 25 26 27 28 28 26 26 29 28 23 22 23 24 26 27 28 31 32 31 29 29 29 27 25 25 24 24 24 24 22 22 22 23 23 23 22 20 19 18 17 16 14 14 15 16 16 16 17 18 16 15 16 17 15 13 12 13 15 16 15 16 16 15 15 14 14 13 12 11 9 8
39 39 39 38 36 35 34 32 31 30 29 28 27 26 25 26 25 24 25 28 30 31 30 29 29 30 28 25 22 22 25 26 28 30 31 32 30 30 29 28 26 25 25 24 24 23 22 23 24 23 23 23 22 20 20 19 18 18 15 14 14 15 15 15 17 20 17 14 16 16 15 13 13 14 15 15 14 14 15 15 14 14 14 13 12 11 11 10
38 38 38 37 36 35 33 32 31 30 29 28 28 27 27 28 26 24 25 27 29 31 32 32 31 30 30 29 26 25 25 26 29 30 31 32 32 30 29 28 26 25 25 25 24 24 24 24 24 23 23 23 22 21 21 21 19 19 17 15 14 14 14 14 18 22 18 14 15 17 16 15 15 15 15 14 14 13 13 13 13 13 13 13 12 12 11 11
35 36 36 36 35 34 32 31 31 30 29 29 29 29 28 29 27 25 25 26 27 29 31 32 31 31 31 29 27 26 26 27 30 30 31 32 32 30 29 27 27 26 26 27 25 25 25 24 23 23 23 23 23 22 21 21 20 19 18 17 15 15 15 14 18 23 19 14 16 19 18 16 16 16 14 13 14 13 12 12 11 12 12 12 13 12 12 11
31 33 34 34 33 32 31 30 30 29 29 29 29 29 29 28 26 25 25 25 26 28 29 31 31 31 32 29 27 26 26 27 29 30 32 32 31 30 28 27 27 26 27 28 27 25 24 23 23 23 23 24 24 22 22 21 20 19 19 19 17 16 15 13 17 22 17 13 17 21 17 16 17 16 16 15 14 14 14 13 12 11 12 12 12 12 12 12
28 29 31 32 31 30 30 28 28 28 28 28 28 29 29 28 26 25 24 23 24 26 28 30 29 30 32 30 28 27 25 25 27 28 31 32 31 29 27 27 27 27 27 28 27 26 24 23 24 25 24 24 24 23 22 21 21 20 19 20 19 17 14 12 18 21 16 14 18 21 16 15 17 17 17 17 16 16 15 14 13 13 13 13 12 12 12 12
25 26 28 30 30 28 28 27 26 26 26 26 26 27 28 27 26 24 21 21 23 25 26 27 27 27 31 31 29 28 26 25 27 27 30 32 31 29 27 26 26 27 27 27 25 25 24 24 24 25 25 25 25 24 23 22 21 20 19 19 18 17 14 11 19 22 17 17 19 20 18 15 17 17 17 18 16 17 17 15 15 14 14 14 13 13 13 13
22 24 26 27 27 27 27 26 24 24 25 25 23 24 27 26 25 22 20 20 21 23 26 26 24 25 29 30 29 27 24 25 27 28 30 31 31 30 28 26 26 26 26 25 25 24 25 25 24 25 25 25 25 24 23 22 22 21 20 18 16 17 15 11 18 22 17 17 18 19 18 16 17 18 18 18 17 17 17 16 16 15 15 15 15 15 14 14
21 23 24 25 26 26 26 24 23 23 25 24 20 22 26 25 22 20 19 18 17 19 23 25 24 23 27 30 31 28 22 23 27 28 30 32 31 30 29 27 26 27 26 25 25 24 25 26 24 25 25 24 24 24 23 23 23 21 19 18 16 17 16 12 15 20 17 16 18 19 18 15 16 19 18 18 18 18 18 17 16 16 15 15 15 15 15 15
19 21 22 23 24 24 24 24 24 24 24 23 19 20 24 24 21 19 19 18 17 17 20 23 24 24 27 30 31 29 23 22 25 27 29 32 32 30 28 27 26 26 27 26 25 23 23 25 24 24 24 24 23 24 24 24 22 20 20 18 16 17 17 12 14 20 18 17 19 21 20 15 14 18 20 19 20 20 19 18 17 17 16 16 16 16 16 15
17 19 20 21 21 22 23 23 25 24 22 22 20 19 22 22 21 19 18 18 18 17 18 22 24 25 27 29 29 29 26 23 24 26 28 30 31 30 27 27 26 24 26 26 25 24 22 24 24 23 23 22 22 23 24 24 20 19 21 20 17 17 17 13 13 17 18 18 21 23 22 17 14 18 22 20 20 20 19 19 18 17 17 17 17 17 16 16
15 16 18 20 20 20 21 23 24 23 21 21 20 20 21 21 20 19 18 17 16 17 18 21 23 24 28 29 28 28 27 24 24 26 27 28 30 30 27 28 26 24 24 25 25 25 23 24 24 22 23 22 22 23 24 24 21 20 21 20 18 17 17 15 14 15 16 18 20 21 21 19 16 18 21 19 18 19 18 17 17 17 17 18 18 18 17 16
13 14 16 18 19 20 22 23 22 21 21 21 20 20 22 21 20 20 17 14 16 18 19 20 22 24 26 28 27 28 27 25 25 26 27 27 28 30 29 28 27 25 25 25 25 24 24 24 23 22 23 24 22 22 23 24 23 22 21 21 19 16 17 17 16 16 17 18 20 20 18 17 15 15 18 18 18 18 16 15 16 16 16 16 17 17 17 16
11 12 13 15 18 20 22 22 21 20 19 20 20 20 21 20 19 20 17 13 14 17 17 19 21 23 26 26 26 28 28 26 26 26 27 28 27 29 30 29 28 25 24 24 24 24 23 22 23 24 23 23 24 22 23 24 23 23 24 22 20 17 18 19 17 15 14 14 20 21 16 14 14 13 16 17 16 15 15 15 15 14 14 15 14 15 15 15
9 10 12 14 17 20 22 22 20 18 18 19 20 21 21 19 18 19 17 13 12 14 16 19 20 22 25 26 24 27 28 26 26 26 27 29 27 28 30 30 29 26 22 23 24 24 23 22 23 24 22 23 24 23 22 23 22 22 23 23 21 19 18 18 17 15 13 12 16 17 14 14 14 13 15 15 15 15 15 14 14 13 13 13 12 12 13 14
7 9 11 14 16 19 22 22 19 18 19 20 20 20 20 18 16 16 15 13 12 13 14 18 21 22 24 24 23 26 28 26 26 26 27 29 27 28 30 30 30 27 23 23 23 24 24 23 22 22 21 23 25 23 21 21 21 22 21 23 24 21 18 17 18 17 13 11 13 14 13 14 14 13 14 15 15 15 15 14 14 13 12 11 11 11 11 12
7 9 11 14 16 19 22 22 19 19 20 20 19 20 20 19 16 13 13 12 11 12 13 16 21 22 23 24 23 26 28 26 25 26 27 28 27 27 29 29 29 29 26 23 22 22 23 23 22 22 21 23 24 23 22 21 20 21 23 24 24 21 17 16 19 18 13 11 12 13 13 14 14 13 15 16 16 16 16 15 13 12 12 12 11 11 11 12
6 8 11 14 17 19 21 21 20 20 20 19 19 19 19 18 15 12 12 11 10 12 13 14 19 22 23 24 24 26 29 27 25 25 26 28 27 27 30 30 30 30 27 23 21 21 20 20 22 24 22 21 22 22 23 23 20 20 24 24 23 20 18 16 17 18 16 14 14 14 16 17 16 15 17 18 17 17 17 16 14 13 13 13 12 12 12 13
5 7 11 14 17 19 21 21 20 20 20 18 18 18 17 16 13 12 13 11 10 12 13 13 17 19 21 23 23 26 28 27 26 26 26 27 26 27 29 30 30 31 29 25 21 19 19 17 19 24 23 21 21 21 23 25 23 20 20 21 22 22 21 18 16 17 18 17 16 16 17 19 18 18 19 20 19 18 18 17 16 16 15 14 14 14 13 13
6 8 10 14 17 20 21 21 20 19 19 18 18 18 16 14 12 12 12 11 10 12 13 14 14 15 18 21 22 24 27 28 27 25 25 25 24 26 28 28 29 32 30 27 22 19 19 18 16 21 23 21 21 23 24 26 24 20 18 20 23 22 21 20 18 16 17 17 17 17 18 20 20 20 21 21 20 19 18 18 18 16 16 16 16 15 14 14
8 9 10 14 18 21 21 21 20 18 18 17 17 16 14 12 11 10 11 11 11 13 14 14 13 13 15 19 21 23 26 28 27 24 24 24 23 24 28 28 28 31 32 28 24 19 19 18 16 18 21 21 21 24 24 24 23 22 20 20 23 23 20 20 19 18 17 16 16 16 17 19 20 21 21 21 20 19 19 18 17 16 16 16 16 16 15 14
8 9 10 14 19 21 21 20 19 18 17 16 16 15 13 10 9 9 10 11 12 14 15 14 14 14 13 15 19 21 24 26 26 24 23 24 23 22 26 28 27 29 32 29 25 21 19 19 18 17 20 22 22 21 22 22 23 23 21 19 21 24 22 20 20 20 19 16 16 16 16 17 18 19 20 20 19 19 18 17 17 17 16 16 16 15 15 14
9 10 12 15 19 21 21 19 18 17 16 16 15 13 12 10 9 9 10 11 11 13 15 14 14 14 13 13 16 18 22 26 26 24 23 24 23 21 23 27 27 28 30 29 26 23 20 18 19 18 19 22 22 20 20 22 23 24 22 19 19 22 23 22 21 20 19 17 15 15 14 15 17 18 19 20 18 17 17 16 16 16 16 15 15 15 14 14
9 10 11 15 19 20 19 18 17 17 16 15 13 12 11 10 9 9 9 10 10 11 13 14 14 14 13 12 13 15 19 24 26 24 22 23 22 21 22 26 27 27 29 28 25 24 21 18 19 19 18 19 20 19 19 20 22 24 24 21 20 21 23 23 22 19 17 16 15 14 14 15 17 17 18 18 17 16 16 15 15 15 16 16 15 15 14 13
8 10 12 16 19 19 18 17 16 15 14 13 11 10 10 10 9 9 9 10 10 10 12 14 14 13 12 11 13 14 16 21 25 23 21 20 21 22 22 26 27 26 28 27 25 24 23 19 19 18 16 17 18 18 18 20 22 23 24 22 20 21 21 19 20 20 17 15 15 14 15 16 17 18 17 17 16 15 15 15 14 14 15 16 15 14 13 12
10 12 12 14 17 17 16 16 15 13 12 10 8 9 9 9 9 9 10 10 10 10 11 14 13 12 11 11 13 15 15 17 22 24 21 19 20 21 21 25 27 25 26 28 25 23 22 21 20 19 18 18 19 18 19 19 20 22 24 24 22 22 22 18 17 19 18 16 15 15 15 16 17 18 18 17 17 16 16 16 15 14 15 15 15 14 13 12
10 12 13 14 16 16 15 14 13 12 11 9 7 8 9 8 9 9 10 11 11 11 11 14 14 12 11 11 12 14 14 15 18 21 22 19 18 19 20 23 25 25 25 28 26 22 20 21 22 20 19 20 20 18 16 17 19 21 23 24 23 22 23 20 17 18 18 17 15 17 19 19 19 20 19 18 18 17 16 17 16 16 15 15 14 13 12 12
10 11 13 14 14 14 14 13 12 11 10 9 8 8 8 7 8 9 10 11 11 9 10 13 14 12 11 11 11 11 12 12 13 18 22 20 16 18 19 20 23 24 23 25 26 23 19 20 22 21 19 18 18 16 14 15 19 21 22 24 23 22 23 23 20 18 18 16 16 19 21 21 22 22 20 19 18 17 17 17 17 16 16 14 14 13 12 12
11 11 11 12 12 13 12 11 11 10 10 9 8 8 7 7 8 9 10 11 9 8 9 12 13 11 10 10 9 10 10 11 11 15 22 21 16 16 19 19 21 23 22 22 23 23 20 19 21 22 20 18 16 15 14 13 15 18 20 23 23 21 22 23 21 20 20 18 18 21 22 21 22 22 20 19 18 17 17 17 16 15 14 14 14 13 13 12
10 9 9 10 10 11 11 10 9 9 9 8 7 7 7 8 8 9 10 10 10 9 9 12 12 10 9 9 9 9 9 11 11 12 17 21 17 16 19 18 19 21 22 21 21 20 20 20 19 20 20 18 15 14 14 13 11 11 13 16 18 18 18 18 17 17 18 17 17 20 20 19 20 21 20 19 18 17 17 15 14 14 14 14 14 13 12 12
8 8 8 8 9 9 9 9 8 7 7 8 7 7 7 8 8 9 10 10 11 10 9 11 11 10 10 9 10 10 9 12 13 11 14 20 18 16 18 17 16 20 21 20 19 19 19 19 19 19 18 17 15 14 14 14 12 11 9 11 13 14 15 15 15 16 16 15 16 18 17 18 19 19 18 18 17 17 16 15 15 15 15 14 13 12 11 11
8 8 7 7 8 8 8 7 7 7 6 6 7 6 7 8 8 8 10 10 11 11 10 11 11 11 11 10 10 10 9 10 12 11 14 18 18 17 18 15 15 19 21 19 18 18 18 18 18 18 18 16 16 16 15 15 14 12 9 10 11 13 15 15 15 16 16 17 18 18 18 18 19 19 18 17 17 17 16 16 16 15 14 13 12 12 11 11
8 8 8 7 7 6 6 6 7 6 5 5 6 6 7 8 8 9 10 11 12 12 12 12 12 12 12 12 11 11 9 9 9 10 13 17 17 17 16 13 13 16 19 18 16 17 18 18 17 18 18 16 16 17 16 15 14 13 13 13 13 13 15 15 13 13 15 17 18 18 18 17 18 19 19 18 18 17 16 16 16 15 14 13 12 11 11 11
Wind_Direction
265 264 262 261 260 259 258 256 254 254 253 253 253 252 251 250 249 248 247 247 246 246 247 247 248 248 248 249 249 250 251 249 247 244 240 238 235 233 235 234 230 229 231 231 231 231 230 229 230 231 233 235 234 232 232 230 229 229 228 233 235 225 220 220 234 244 232 226 224 222 219 210 208 206 204 190 179 181 181 178 170 173 174 169 171 168 172 175
265 264 263 261 260 259 258 256 255 254 253 253 252 252 251 251 249 248 247 246 246 245 245 246 246 247 247 248 248 249 249 247 246 244 240 237 235 233 231 228 225 225 227 228 228 228 228 228 229 230 230 232 230 228 228 226 226 226 226 230 225 213 215 232 245 238 224 230 228 220 219 216 207 205 210 206 196 191 195 194 167 160 160 159 169 171 173 173
265 264 263 261 260 259 258 257 255 254 253 252 252 251 251 251 250 248 247 246 245 245 244 244 245 245 246 246 247 248 247 245 244 241 239 235 232 230 227 225 223 223 225 225 226 226 227 228 227 227 227 228 228 227 226 224 226 224 224 227 216 210 224 245 245 235 232 232 229 222 224 224 206 203 215 211 207 204 204 204 190 185 181 177 182 179 178 182
265 264 262 261 260 259 258 257 256 255 253 253 252 252 251 251 250 249 247 246 245 244 244 243 244 244 245 245 245 245 243 243 241 238 237 234 228 226 224 223 222 223 224 225 226 227 230 231 228 227 226 225 226 227 227 224 224 223 222 219 213 217 231 248 243 233 236 232 232 228 221 224 208 208 214 206 209 216 214 205 195 194 190 188 189 186 187 193
263 262 262 261 260 259 258 257 256 255 254 253 253 252 251 250 249 249 247 246 244 243 243 243 243 243 243 243 242 241 238 238 236 232 233 231 225 222 221 221 221 221 223 224 226 227 231 231 229 229 227 225 226 226 228 224 220 224 224 219 221 228 233 249 247 230 231 230 231 225 220 231 219 213 209 205 214 220 212 198 188 190 193 195 191 190 194 199
261 261 260 260 259 258 257 257 257 256 255 254 253 252 251 250 249 248 247 245 244 242 242 241 241 241 242 241 239 235 232 232 232 229 228 225 221 219 218 219 219 221 222 223 225 225 227 227 225 227 226 225 226 226 228 223 218 223 225 222 226 229 231 247 249 231 227 225 225 223 232 235 215 219 216 208 208 200 197 191 184 184 187 191 191 194 196 199
260 259 259 259 258 257 257 256 256 256 256 255 253 252 251 250 248 247 246 245 243 242 241 240 240 240 241 239 234 231 230 232 231 226 225 223 219 218 218 219 219 220 221 221 222 222 224 225 222 223 225 225 226 227 229 224 220 221 222 222 226 229 230 241 244 234 227 226 231 227 231 228 208 216 208 187 181 181 188 190 186 182 179 185 190 193 191 192
259 258 258 257 257 256 256 255 255 255 255 255 254 252 250 248 247 246 246 244 242 241 240 239 239 239 238 236 232 230 231 231 229 226 226 225 222 219 218 220 220 219 220 220 220 219 222 225 222 220 224 225 224 225 227 226 223 223 222 223 229 233 231 233 234 238 235 231 236 231 224 221 208 205 183 175 177 178 184 186 185 183 183 189 192 188 186 190
258 257 256 256 256 255 255 254 254 254 254 254 253 252 250 248 247 246 245 244 242 240 239 238 238 238 236 233 230 232 231 229 229 227 226 226 224 221 220 221 220 218 219 220 219 220 222 223 221 219 221 225 224 225 226 226 224 222 223 227 230 232 231 231 230 237 241 230 229 229 224 220 209 202 191 182 180 180 183 185 185 184 186 193 195 188 188 193
257 255 254 254 254 254 254 253 253 253 252 252 252 251 249 248 247 246 244 243 241 240 239 237 237 236 234 231 229 230 231 228 226 224 223 223 222 221 221 221 219 217 218 219 219 220 222 222 220 218 221 225 225 225 226 227 225 220 224 230 229 231 235 233 231 236 239 227 221 225 224 221 215 210 205 191 184 184 184 185 183 176 175 180 186 189 192 198
256 255 253 252 252 252 252 252 252 252 251 251 251 250 249 248 246 245 244 242 241 240 238 236 235 234 231 230 228 226 225 222 220 221 222 220 220 220 220 220 218 217 217 218 219 219 222 222 218 218 221 223 226 230 232 232 229 225 228 231 228 231 236 232 232 235 234 228 223 222 220 219 217 213 209 199 194 193 187 186 183 176 174 175 182 192 200 202
255 254 253 251 250 250 250 251 251 251 250 250 249 248 248 247 246 245 243 241 240 239 238 235 234 232 230 230 227 222 221 220 220 223 223 219 220 221 220 219 219 218 216 218 220 219 221 221 219 220 219 218 223 228 234 234 232 229 227 230 229 230 232 229 231 234 232 229 223 215 214 218 213 209 209 202 200 199 193 191 193 193 191 188 191 200 206 206
254 253 252 251 249 249 249 249 249 249 250 249 248 247 246 246 245 244 242 240 239 238 237 235 233 231 230 230 226 222 223 226 226 227 225 220 219 221 221 220 219 218 217 218 219 219 220 219 219 223 221 220 222 227 235 233 233 231 223 225 229 230 231 228 228 232 230 225 216 204 210 218 212 210 210 203 201 201 196 194 199 202 198 195 198 202 207 210
252 251 250 249 248 247 247 247 247 248 248 248 247 245 245 245 244 243 241 240 238 237 236 234 233 230 230 230 227 226 227 229 229 227 226 222 220 220 220 220 219 218 217 217 219 219 218 218 220 223 223 224 227 235 240 232 230 228 221 223 225 228 233 229 226 227 224 219 209 199 209 216 210 209 204 202 206 198 187 190 197 201 199 199 204 204 209 214
251 249 249 248 247 246 246 245 246 246 246 246 245 244 243 243 243 242 240 239 238 237 235 233 231 228 231 230 228 227 227 228 228 226 225 224 223 222 218 217 219 218 217 216 218 218 217 218 220 222 224 226 228 234 234 230 227 222 220 224 223 227 232 228 223 222 219 216 206 201 212 215 209 205 200 203 203 184 179 190 197 200 201 205 210 209 212 214
249 248 247 246 245 245 245 244 244 244 245 245 244 243 242 241 241 240 239 238 237 235 232 230 227 227 230 229 226 226 225 225 225 223 223 224 224 222 218 216 217 218 218 217 217 217 219 222 221 222 224 223 224 226 227 229 227 222 220 223 224 225 229 227 221 221 218 214 210 206 210 214 209 204 202 199 186 177 185 195 197 201 203 205 208 209 213 213
247 246 244 243 243 243 243 243 243 242 243 243 242 241 240 239 239 238 238 236 234 232 228 227 227 228 230 228 227 228 224 223 222 221 221 221 222 221 219 216 214 216 216 215 215 215 219 221 219 220 222 220 218 218 222 226 225 223 220 222 227 224 226 225 219 220 216 210 213 207 206 216 211 204 204 196 180 180 191 196 199 203 204 205 205 206 211 210
244 244 242 241 240 240 241 241 241 240 241 241 239 239 239 237 236 236 235 232 229 229 228 228 227 227 229 228 227 225 223 223 221 220 219 218 219 220 220 217 214 213 212 212 213 213 217 218 214 216 219 219 217 214 218 222 220 218 215 221 228 225 225 223 216 216 210 208 210 200 201 214 207 202 202 192 183 186 194 199 203 204 204 206 206 207 210 210
241 241 239 237 237 238 239 239 238 238 239 238 237 237 238 235 234 233 231 228 226 225 227 226 221 223 230 224 220 221 221 219 218 217 217 216 216 218 218 217 214 212 210 210 211 212 214 215 214 215 217 218 216 216 219 220 219 216 212 218 225 225 226 224 217 210 202 205 206 197 197 200 195 196 194 186 186 190 196 202 203 205 208 208 209 212 212 215
238 238 236 235 235 235 236 237 236 236 236 236 234 235 234 229 228 228 226 226 226 226 228 226 219 222 230 222 215 218 219 218 216 214 214 213 212 214 215 215 213 211 211 211 210 211 211 215 217 216 217 217 215 218 221 220 220 218 212 216 223 224 226 222 213 207 200 201 202 195 193 192 187 189 191 190 192 195 198 203 205 208 212 213 214 216 217 224
236 235 234 233 232 232 233 235 234 234 234 233 231 231 229 224 223 224 224 226 226 227 229 229 223 223 227 225 221 220 219 219 216 212 211 210 208 210 212 212 210 211 212 210 210 211 213 216 219 217 217 217 215 217 221 220 222 224 222 221 224 223 223 219 209 206 202 199 201 194 186 187 189 191 196 198 197 199 202 204 208 211 214 218 218 218 223 230
234 232 231 230 230 230 230 232 232 232 232 230 228 228 226 224 224 228 229 228 227 226 227 229 228 226 227 227 227 224 222 220 214 211 208 206 206 207 209 209 210 211 210 209 210 212 216 219 218 216 217 217 216 217 220 222 222 225 228 228 229 223 219 220 211 204 202 203 201 190 182 189 193 194 200 203 202 204 204 205 212 216 218 221 221 223 224 227
231 229 228 226 227 227 227 229 230 230 229 228 227 225 224 224 226 231 233 231 229 226 224 226 227 226 225 226 224 222 223 221 214 209 206 204 206 206 207 208 209 209 209 210 211 212 217 219 216 215 215 215 217 218 219 222 221 222 225 225 229 224 218 222 210 200 203 209 196 183 184 196 198 197 201 204 204 205 204 205 212 216 218 221 223 224 224 226
228 227 225 222 223 225 225 227 228 228 227 227 227 224 223 224 226 232 233 230 230 227 224 224 223 223 222 221 220 217 219 219 212 206 204 204 204 205 208 208 208 210 210 211 213 215 218 218 214 215 215 214 216 218 217 219 220 221 223 222 225 225 222 217 200 196 201 204 190 184 190 204 205 204 207 207 204 206 208 209 213 217 217 221 223 223 225 227
223 222 220 218 220 222 222 224 225 225 225 224 224 222 221 221 223 229 231 229 229 226 224 222 220 219 217 217 218 217 218 217 210 205 204 204 204 204 208 209 208 211 211 210 213 217 219 215 212 214 215 214 216 218 216 215 217 222 222 220 224 225 223 209 190 192 199 196 193 194 199 214 214 207 209 213 212 212 214 215 218 221 221 222 225 226 227 228
217 216 214 214 215 217 218 219 221 221 220 219 219 217 216 217 220 225 226 227 229 223 218 216 215 214 211 212 214 213 216 215 210 207 203 204 205 204 207 209 210 212 210 210 214 217 218 214 210 212 214 214 216 218 215 212 215 220 218 218 224 221 222 215 191 191 201 199 202 207 207 216 219 213 212 215 217 218 220 222 222 224 225 227 227 228 229 230
212 210 209 209 211 212 213 215 218 217 213 212 214 213 212 214 218 219 218 225 228 219 212 210 211 209 206 208 208 208 213 210 208 211 206 203 204 204 207 209 209 211 209 208 214 215 214 213 210 211 212 213 215 216 214 211 214 219 216 216 222 215 216 217 193 194 203 198 204 213 209 213 219 218 216 214 218 222 224 227 227 226 226 227 229 231 233 234
207 204 204 206 207 210 211 214 216 212 208 209 213 213 210 211 211 210 213 221 218 210 209 208 207 206 203 205 207 208 211 204 205 212 207 203 203 204 207 209 207 209 208 209 213 212 211 212 210 208 211 214 215 215 212 212 214 217 216 215 218 212 211 211 198 201 201 194 206 214 209 214 222 220 217 214 218 222 224 228 229 227 225 227 230 231 234 237
200 199 201 203 205 209 210 211 209 205 205 208 211 209 204 204 203 204 212 216 209 205 207 203 202 204 202 203 206 209 211 205 204 208 204 202 204 205 208 209 207 207 210 211 213 212 211 212 211 209 213 215 214 214 212 213 216 216 216 216 217 214 210 208 207 209 206 204 213 214 209 218 227 221 218 220 223 224 227 231 232 230 228 228 229 229 233 237
192 195 200 201 203 205 205 205 203 201 203 204 205 202 197 196 198 202 208 210 207 204 203 200 200 202 201 201 204 207 208 207 204 202 201 200 202 206 208 208 208 207 210 212 213 213 212 211 212 212 213 214 213 214 213 214 214 212 213 216 219 218 212 211 214 210 212 221 221 214 214 222 232 228 225 229 229 224 226 231 233 233 230 228 229 230 233 237
185 192 197 199 201 200 198 197 196 197 200 201 201 198 192 192 197 202 202 205 206 201 199 200 200 200 200 201 203 204 205 207 203 199 200 199 200 203 204 205 206 207 209 210 211 213 212 210 212 213 212 211 211 213 213 213 212 210 211 212 216 221 215 215 218 209 217 230 224 216 217 223 234 234 230 230 227 220 223 227 229 231 229 228 230 233 236 239
184 192 196 199 201 197 193 192 191 193 197 199 199 194 188 191 200 204 202 206 206 200 198 200 199 199 199 200 202 202 202 205 203 201 200 199 200 202 203 203 202 202 206 207 207 211 213 213 211 212 212 209 208 211 211 212 212 211 211 208 209 214 213 215 217 213 224 233 224 217 217 224 236 237 228 224 221 220 222 223 224 228 229 230 233 236 239 241
187 193 196 199 199 194 191 189 189 193 195 195 194 189 187 192 198 200 201 204 202 199 199 198 197 197 196 199 202 201 201 203 203 201 200 199 201 202 204 205 202 202 204 204 204 207 212 215 211 210 212 209 208 209 209 210 211 210 209 207 206 208 209 215 216 216 231 232 217 213 215 225 237 237 229 224 220 217 216 217 221 223 227 232 235 238 241 242
190 194 195 196 195 192 189 187 187 190 192 189 185 183 187 193 192 192 197 202 204 203 200 196 195 196 197 199 201 198 200 202 202 201 199 199 201 202 204 205 204 204 202 202 205 205 208 214 212 209 210 208 209 211 209 207 209 211 208 206 211 213 210 213 214 214 227 223 210 211 218 227 231 231 227 221 216 213 213 216 218 222 229 235 239 242 244 246
191 194 194 192 190 188 186 185 185 185 183 180 179 182 188 187 182 185 193 201 208 207 203 199 196 196 198 199 199 199 200 201 202 201 200 200 202 202 203 204 204 203 200 201 205 206 209 214 212 209 210 209 209 211 208 205 210 214 210 208 217 219 213 213 213 210 216 220 216 219 223 223 222 223 221 215 214 215 215 217 221 227 237 241 245 251 251 250
187 188 187 185 184 183 182 182 181 179 178 176 178 183 183 178 176 183 193 201 209 209 209 205 197 195 197 198 199 199 200 200 201 202 201 202 204 204 204 204 204 203 202 202 204 205 208 214 213 209 212 211 207 209 209 206 210 214 213 215 219 217 214 217 216 213 214 220 222 218 214 212 215 222 222 215 214 218 220 224 228 234 241 245 250 254 253 250
176 177 179 181 180 178 178 178 176 176 177 177 179 180 179 183 191 197 200 206 210 207 207 204 198 195 195 198 200 199 198 200 202 202 202 203 206 205 204 205 205 206 205 203 204 205 206 213 214 209 210 210 206 209 214 212 211 213 215 218 216 216 220 219 216 217 218 222 224 217 209 210 215 223 224 218 216 221 226 229 231 235 241 246 248 248 248 246
165 172 178 179 177 174 173 174 174 174 176 178 181 181 181 188 199 202 204 209 206 201 200 198 198 198 195 197 201 198 197 200 202 202 201 204 207 206 205 206 206 207 207 203 205 209 206 209 215 209 208 212 209 211 217 216 215 216 218 215 210 214 222 219 216 218 218 222 227 219 213 218 223 224 223 222 222 224 228 229 231 234 237 240 242 242 242 241
142 154 167 171 171 170 169 169 170 172 175 176 177 178 180 187 199 203 207 209 202 197 196 193 197 202 198 198 200 198 198 200 202 203 202 204 208 207 205 205 206 206 207 206 206 210 206 207 215 211 207 211 213 214 215 215 217 219 220 216 212 214 218 216 217 219 217 222 226 222 223 230 231 227 224 226 227 226 227 231 232 233 234 236 238 239 239 238
124 135 154 163 165 165 164 164 167 168 170 173 174 177 182 191 203 207 208 208 200 194 193 193 199 203 199 198 199 198 199 201 203 204 204 205 206 206 205 205 205 205 206 207 208 208 205 206 214 213 206 206 213 215 213 211 214 217 218 218 216 216 217 218 222 224 219 221 225 225 232 237 235 233 231 229 229 228 227 230 233 233 233 234 235 235 237 236
116 126 143 153 157 159 159 160 164 164 166 171 174 179 186 192 202 208 209 206 199 195 195 198 203 203 199 200 200 198 198 200 202 204 204 204 205 206 206 205 204 203 204 206 209 208 205 206 210 211 207 208 213 215 212 211 214 215 216 219 216 215 215 218 227 229 225 224 224 225 234 238 234 236 236 230 229 229 226 227 230 231 230 231 231 232 234 234
113 123 136 146 151 155 156 157 161 162 164 169 173 181 190 196 202 205 202 197 195 196 196 197 200 199 196 198 200 199 198 198 201 203 203 204 206 208 207 205 203 202 201 204 208 207 204 203 206 211 213 213 214 216 215 215 217 217 218 219 217 216 216 217 223 228 228 227 224 225 234 236 233 235 232 226 225 225 223 224 228 229 228 227 227 229 232 234
114 123 136 148 152 154 155 156 158 160 163 168 176 188 195 196 197 198 194 190 188 190 190 190 191 192 192 195 199 201 198 197 201 203 201 202 208 209 205 202 202 201 200 203 207 206 204 203 204 211 218 215 212 217 218 216 218 219 219 219 219 219 219 219 221 224 228 227 221 227 238 234 233 235 226 216 217 220 220 222 224 226 228 226 224 226 229 232
118 124 134 146 152 154 155 156 155 158 163 169 180 190 192 192 193 193 192 187 183 183 184 185 186 187 191 199 202 201 198 197 201 204 202 202 206 207 202 201 201 201 200 201 203 204 206 206 202 204 211 210 209 216 218 216 216 217 218 221 224 220 216 219 223 225 232 228 213 220 235 233 229 229 221 212 213 217 219 220 221 223 225 225 223 224 226 229
118 125 131 144 153 156 158 157 154 156 163 171 184 189 186 187 187 188 190 186 184 182 179 183 193 198 198 200 199 197 197 197 199 203 204 203 204 204 201 200 200 201 201 200 200 203 207 208 204 203 208 210 211 217 219 217 218 219 220 224 227 220 213 215 220 224 229 224 213 217 225 224 223 220 216 215 216 218 219 218 219 221 222 223 223 223 224 227
114 126 133 141 151 157 161 161 159 160 165 169 179 181 180 182 182 188 192 186 185 186 181 186 196 201 197 193 191 193 198 199 198 200 201 200 200 200 199 198 197 198 199 197 197 201 208 210 207 205 210 213 214 220 224 220 218 220 222 226 228 222 215 216 223 227 224 220 224 224 214 210 215 215 214 218 219 220 219 216 217 220 221 221 221 221 223 227
111 123 132 138 147 156 162 166 166 166 169 172 173 175 182 186 180 183 187 180 177 182 185 190 194 193 191 190 189 194 199 198 198 198 196 195 197 198 197 197 196 196 195 194 196 201 207 210 209 207 210 213 214 220 228 226 221 220 222 224 223 220 219 223 227 225 219 221 232 226 210 206 212 213 213 216 217 219 218 216 217 219 219 218 219 220 222 225
110 117 127 136 145 153 159 164 167 170 177 181 179 179 190 191 178 178 183 179 176 176 178 186 189 186 188 192 192 193 192 192 197 198 193 192 196 196 195 198 196 192 190 193 199 203 206 210 211 209 209 212 214 219 225 229 227 221 220 221 221 221 221 223 226 224 220 226 229 219 212 211 212 213 213 214 214 215 215 214 216 217 215 213 216 219 221 224
109 115 124 134 142 151 157 159 163 172 180 183 181 180 191 195 188 187 187 181 182 184 180 183 185 179 183 191 186 179 179 182 189 197 193 191 194 191 189 194 196 191 190 196 201 203 204 209 210 207 209 212 213 214 217 223 224 217 216 219 220 219 215 214 222 223 220 222 217 209 209 214 214 214 215 213 213 212 211 213 214 213 212 212 214 218 221 225
106 112 122 133 140 151 159 158 161 168 172 175 178 180 190 199 198 196 193 185 186 187 182 185 188 183 185 188 177 174 178 175 180 195 194 189 191 188 185 190 196 192 192 198 205 204 204 209 210 205 207 212 212 209 211 213 210 203 207 215 217 216 211 208 211 212 211 210 205 200 204 212 216 214 211 211 212 211 211 214 214 214 215 215 214 216 220 225
101 108 118 128 137 149 158 159 164 169 167 172 180 182 191 200 203 201 198 197 197 195 191 192 189 183 187 188 177 180 186 175 177 196 195 186 186 184 183 189 195 193 194 199 205 204 203 208 211 207 208 215 215 210 209 210 208 204 209 218 221 217 212 211 213 215 211 202 196 201 208 212 213 211 210 212 212 211 213 214 214 215 214 211 210 214 219 226
92 100 111 118 129 145 155 160 167 173 178 186 193 196 200 203 208 207 201 200 201 199 200 198 187 182 190 192 184 185 190 184 184 192 187 182 179 176 180 190 192 191 195 198 201 203 202 204 209 207 208 216 220 215 213 215 215 217 220 223 223 216 208 207 215 220 215 205 203 211 215 212 209 208 210 213 213 213 216 214 212 211 208 206 209 213 218 225